Location: Rounton
(54.4000°N, 1.3500°W)
Time: 19:46:48
(UTC+00:00)

A-11 Canister half - Pass Details

Date: 30 November 2021
Orbit: 1516 x 1684 km, 47.2° (Epoch: 19 January)

Event Time Altitude Azimuth Distance (km) Brightness Sun altitude
Rises 10:47:57 0° 257° (WSW) 4,844 11.6 12.6°
Reaches altitude 10° 10:51:05 10° 254° (WSW) 3,879 11.2 12.7°
Maximum altitude 11:00:45 59° 179° (S) 1,894 10.3 13.0°
Drops below altitude 10° 11:10:37 10° 104° (ESE) 3,949 11.5 13.3°
Sets 11:13:51 0° 101° (E) 4,937 11.9 13.4°
